Lid_Strength_Index
14 14 15 16 16 16 17 17 17 18 18 19 18 19 19 19 19 19 19 20 19 19
14 15 15 16 16 16 17 17 18 18 18 19 18 19 19 19 20 20 19 20 19 19
15 15 15 17 17 17 17 18 18 18 18 19 19 19 19 20 20 20 20 19 20 19
15 15 15 16 16 17 17 18 18 18 19 19 19 19 19 20 20 20 20 20 20 20
15 15 16 16 17 17 18 18 18 18 19 19 19 19 19 20 20 20 21 20 21 21
15 16 16 16 17 17 18 18 19 19 19 19 19 19 19 19 20 20 20 20 21 22
15 15 15 15 17 17 18 18 19 19 19 19 19 19 19 19 20 20 20 20 21 22
14 14 14 15 17 18 18 17 18 19 19 19 19 19 19 19 20 21 21 21 21 21
14 15 15 15 16 17 18 18 18 19 19 19 19 16 16 19 20 21 21 22 21 20
16 16 16 16 17 18 18 19 19 19 19 19 19 15 15 17 20 21 21 21 21 20
16 15 17 18 19 19 19 19 19 19 19 19 20 15 15 16 20 20 20 20 20 20
17 16 18 18 19 19 19 19 19 19 20 20 19 15 14 16 20 20 20 20 20 20
19 20 18 18 19 19 19 19 19 20 20 19 20 15 14 16 19 21 20 20 19 18
20 20 18 18 19 20 20 19 20 20 20 20 19 16 13 14 19 20 21 21 20 19